| time (UTC) | temp F | wind direction | speed knots | gust knots | rain 1hr in | rain 24hr in | rain mn in | humidity % | barometer mb |
| 20260504081542 | 41 | 137 | 0.9 | 1.7 | 0.00 | 0.00 | 0.00 | 68 | 1011.1 |
| 20260504050024 | 42 | 139 | 0.0 | 2.6 | 0.00 | 0.00 | 0.00 | 63 | 1011.5 |
| 20260504044523 | 42 | 138 | 0.9 | 2.6 | 0.00 | 0.00 | 0.00 | 61 | 1011.7 |
| 20260504043023 | 42 | 103 | 0.9 | 2.6 | 0.00 | 0.00 | 0.00 | 62 | 1011.7 |
| 20260504041621 | 41 | 133 | 0.9 | 1.7 | 0.00 | 0.00 | 0.00 | 62 | 1011.6 |
| 20260504040019 | 41 | 147 | 0.9 | 1.7 | 0.00 | 0.00 | 0.00 | 61 | 1011.5 |
| 20260504034534 | 41 | 118 | 0.9 | 1.7 | 0.00 | 0.00 | 0.00 | 61 | 1011.4 |
| 20260504033023 | 41 | 165 | 0.9 | 1.7 | 0.00 | 0.00 | 0.00 | 62 | 1011.2 |
| 20260504031517 | 42 | 138 | 0.0 | 0.9 | 0.00 | 0.00 | 0.00 | 60 | 1011.1 |
| 20260504030018 | 43 | 8 | 0.0 | 2.6 | 0.00 | 0.00 | 0.00 | 55 | 1011.1 |
| 20260504024516 | 43 | 65 | 0.0 | 2.6 | 0.00 | 0.00 | 0.00 | 52 | 1011.1 |
| 20260504023015 | 43 | 304 | 0.0 | 4.3 | 0.00 | 0.00 | 0.00 | 52 | 1011.2 |
| 20260504021514 | 43 | 162 | 0.0 | 3.5 | 0.00 | 0.00 | 0.00 | 52 | 1011.1 |
| 20260504020014 | 43 | 309 | 0.9 | 3.5 | 0.00 | 0.00 | 0.00 | 50 | 1011.0 |
| 20260504014518 | 43 | 40 | 0.0 | 2.6 | 0.00 | 0.00 | 0.00 | 48 | 1010.7 |
| 20260504013013 | 43 | 257 | 0.0 | 2.6 | 0.00 | 0.00 | 0.00 | 48 | 1010.7 |
| 20260504011513 | 43 | 303 | 0.0 | 2.6 | 0.00 | 0.00 | 0.00 | 47 | 1010.7 |
| 20260504010012 | 43 | 177 | 0.0 | 3.5 | 0.00 | 0.00 | 0.00 | 46 | 1010.6 |
| 20260504004511 | 43 | 310 | 0.0 | 1.7 | 0.00 | 0.00 | 0.00 | 44 | 1010.3 |
| 20260504003010 | 43 | 42 | 0.0 | 0.9 | 0.00 | 0.00 | 0.00 | 42 | 1010.0 |
| 20260504001511 | 44 | 253 | 0.0 | 1.7 | 0.00 | 0.00 | 0.00 | 41 | 1009.8 |
| 20260504000010 | 45 | 277 | 0.0 | 4.3 | 0.00 | 0.00 | 0.00 | 41 | 1009.6 |
| 20260503234511 | 45 | 252 | 0.9 | 4.3 | 0.00 | 0.00 | 0.00 | 41 | 1009.5 |
| 20260503233008 | 46 | 34 | 0.0 | 6.1 | 0.00 | 0.00 | 0.00 | 44 | 1009.4 |
| 20260503231511 | 47 | 356 | 0.9 | 8.7 | 0.00 | 0.00 | 0.00 | 43 | 1009.4 |
| 20260503230008 | 47 | 34 | 3.5 | 8.7 | 0.00 | 0.00 | 0.00 | 39 | 1009.3 |
| 20260503224507 | 47 | 304 | 0.0 | 4.3 | 0.00 | 0.00 | 0.00 | 42 | 1009.2 |
| 20260503223006 | 48 | 321 | 1.7 | 9.6 | 0.00 | 0.00 | 0.00 | 41 | 1009.1 |
| 20260503221505 | 48 | 33 | 0.9 | 7.0 | 0.00 | 0.00 | 0.00 | 42 | 1009.2 |
| 20260503220009 | 48 | 204 | 0.9 | 5.2 | 0.00 | 0.00 | 0.00 | 43 | 1009.2 |
| 20260503214505 | 47 | 252 | 2.6 | 12.2 | 0.00 | 0.00 | 0.00 | 43 | 1009.2 |
| 20260503213005 | 47 | 330 | 1.7 | 7.8 | 0.00 | 0.00 | 0.00 | 44 | 1009.1 |
| 20260503211506 | 47 | 312 | 1.7 | 9.6 | 0.00 | 0.00 | 0.00 | 43 | 1009.1 |
| 20260503210012 | 46 | 302 | 1.7 | 9.6 | 0.00 | 0.00 | 0.00 | 45 | 1009.0 |
| 20260503204503 | 48 | 31 | 2.6 | 5.2 | 0.00 | 0.00 | 0.00 | 42 | 1008.9 |
| 20260503203007 | 49 | 302 | 2.6 | 9.6 | 0.00 | 0.00 | 0.00 | 42 | 1008.9 |
| 20260503201501 | 49 | 21 | 3.5 | 8.7 | 0.00 | 0.00 | 0.00 | 39 | 1008.8 |
| 20260503200002 | 49 | 304 | 1.7 | 9.6 | 0.00 | 0.00 | 0.00 | 41 | 1008.9 |
| 20260503194501 | 48 | 322 | 2.6 | 12.2 | 0.00 | 0.00 | 0.00 | 41 | 1009.0 |
| 20260503193001 | 48 | 351 | 2.6 | 8.7 | 0.00 | 0.00 | 0.00 | 41 | 1009.0 |
| 20260503191606 | 48 | 333 | 1.7 | 9.6 | 0.00 | 0.00 | 0.00 | 41 | 1008.9 |
| 20260503190059 | 49 | 23 | 3.5 | 8.7 | 0.00 | 0.00 | 0.00 | 41 | 1009.0 |
| 20260503184632 | 48 | 10 | 2.6 | 12.2 | 0.00 | 0.00 | 0.00 | 40 | 1009.0 |
| 20260503183106 | 47 | 303 | 2.6 | 12.2 | 0.00 | 0.00 | 0.00 | 42 | 1009.0 |
| 20260503181557 | 47 | 28 | 1.7 | 10.4 | 0.00 | 0.00 | 0.00 | 42 | 1009.0 |
| 20260503180057 | 47 | 276 | 1.7 | 10.4 | 0.00 | 0.00 | 0.00 | 43 | 1008.9 |
| 20260503174610 | 47 | 274 | 3.5 | 8.7 | 0.00 | 0.00 | 0.00 | 45 | 1008.8 |
| 20260503173129 | 47 | 328 | 2.6 | 7.0 | 0.00 | 0.00 | 0.00 | 45 | 1009.1 |
| 20260503171555 | 46 | 319 | 1.7 | 10.4 | 0.00 | 0.00 | 0.00 | 48 | 1009.2 |